AirNav   Pilot Hours Calculator
 
 1606 users online  

NC18 Rat Landing Seaplane Base
Ahoskie, North Carolina, USA

GOING TO AHOSKIE?


FAA INFORMATION EFFECTIVE 15 JULY 2021

Location

FAA Identifier: NC18
Lat/Long: 36-23-22.0000N 076-54-41.0000W
36-23.366667N 076-54.683333W
36.3894444,-76.9113889
(estimated)
Elevation: 14 ft. / 4 m (estimated)
From city: 7 miles NE of AHOSKIE, NC
Time zone: UTC -4 (UTC -5 during Standard Time)
Zip code: 27986

Seaplane Base Operations

Seaplane Base use: Private use. Permission required prior to landing
Activation date: 12/2010
Control tower: no
ARTCC: WASHINGTON CENTER
FSS: RALEIGH FLIGHT SERVICE STATION
Attendance: UNATNDD
Segmented circle: no

Seaplane Base Communications

WX AWOS-3 at ASJ (14 nm SW): 119.075 (252-345-2967)
WX AWOS-3PT at FKN (19 nm N): 124.675 (757-562-8765)

Nearby radio navigation aids

VOR radial/distance  VOR name  Freq  Var
CVIr306/2.2COFIELD VORTAC114.6009W
FKNr175/20.1FRANKLIN VORTAC110.6009W
ECGr290/36.4ELIZABETH CITY VOR/DME112.5007W

 
NDB name  Hdg/Dist  Freq  Var  ID
WOODVILLE294/30.625410WLLW .-.. .-.. .--
WAKEFIELD184/35.927411WAKQ .- -.- --.-

Seaplane Base Services

Fuel available: 100LL

Runway Information

Runway 12W/30W

Dimensions: 7300 x 500 ft. / 2225 x 152 m
Surface: water
RUNWAY 12W  RUNWAY 30W
Traffic pattern: leftleft

Seaplane Base Ownership and Management from official FAA records

Ownership: Privately-owned
Owner: HENRY JOYNER
327B TUSCARORA RD
WINTON, NC 27986
Phone 252-395-0822
Manager: HENRY JOYNER
327B TUSCARORA RD
WINTON, NC 27986
Phone 252-395-0822

Seaplane Base Operational Statistics

Aircraft based on the field: 1
Single engine airplanes: 1
    
Aircraft operations: avg 25/month *
98% transient general aviation
2% military
* for 12-month period ending 25 January 2009

Additional Remarks

FOR CD CTC WASHINGTON ARTCC AT 703-771-3587.

Instrument Procedures

There are no published instrument procedures at NC18.

Some nearby airports with instrument procedures:

KASJ - Tri-County Airport at Henry Joyner Field (14 nm SW)
KFKN - Franklin Regional Airport (19 nm N)
KSFQ - Suffolk Executive Airport (23 nm NE)
KEDE - Northeastern Regional Airport (27 nm SE)
KPVG - Hampton Roads Executive Airport (32 nm NE)
 
Loc | Ops | Rwys | IFR | FBO | Links
Com | Nav | Svcs | Stats | Notes
Aerial photo
No photo
 
Sectional chart

 
Airport distance calculator
Flying to Rat Landing Seaplane Base? Find the distance to fly.

From to NC18

Sunrise and sunset
Times for 04-Aug-2021
 Local
(UTC-4)
 Zulu
(UTC)
Morning civil twilight05:4909:49
Sunrise06:1710:17
Sunset20:1000:10
Evening civil twilight20:3800:38

Current date and time
Zulu (UTC)  04-Aug-2021 15:39:34
Local (UTC-4)  04-Aug-2021 11:39:34
 
METAR
KASJ 
14nm SW 
041515Z AUTO 02007KT 10SM -DZ BKN007 OVC010 20/20 A3003 RMK AO2 T02000200
KFKN 
19nm N 
041515Z AUTO 03011G17KT 4SM -RA BKN008 BKN024 OVC065 20/20 A3004 RMK AO2 P0004 T02000196
KSFQ 
23nm NE 
041515Z AUTO 01006KT 10SM OVC007 21/21 A3003 RMK AO2 T02080208
TAF
KECG 
36nm E 
041120Z 0412/0512 03014G22KT 2SM +RA OVC007 FM041600 04012G20KT 4SM -RA BR OVC012 FM042000 02010KT P6SM VCSH OVC012 FM050200 36006KT P6SM BKN012
KNGU 
44nm NE 
0408/0507 06010G18KT 9000 -SHRA BKN015 BKN030 OVC080 QNH2996INS TEMPO 0410/0415 4800 RA BR OVC007 BECMG 0415/0417 05018G28KT 4800 RA VCTS BKN015 OVC020 QNH2989INS TEMPO 0415/0419 VRB20G30KT 3200 +TSRA BR OVC005 BECMG 0421/0423 34015G25KT 8000 SHRA BKN020 OVC030 QNH2990INS BECMG 0500/0502 3608G18KT 9999 VCSH BKN035 OVC050 QNH2997INS T18/0407Z T24/0419Z AMD 0755 FN00236
NOTAMs
Click for the latest NOTAMs
NOTAMs are issued by the DoD/FAA and will open in a separate window not controlled by AirNav.

 

 
 

Would you like to see your business listed on this page?

 If your business provides an interesting product or service to pilots, flight crews, aircraft, or users of the Rat Landing Seaplane Base, you should consider listing it here.  To start the listing process, click on the button below
 
Add a business
 

Other Pages about Rat Landing Seaplane Base

Update a link
 
Copyright © AirNav, LLC. All rights reserved. Privacy Policy  Contact